Location: Montclair
(37.8322°N, 122.2092°W)
Time: 14:34:58
(UTC+00:00)

Cosmos 1606 Rocket - Pass Details

Date: 08 September 2024
Orbit: 599 x 626 km, 82.5° (Epoch: 08 October)

Event Time Altitude Azimuth Distance (km) Brightness Sun altitude
Rises 12:26:26 0° 179° (S) 2,836 6.8 -15.9°
Reaches altitude 10° 12:28:38 10° 176° (S) 1,940 5.9 -15.5°
Maximum altitude 12:32:53 66° 94° (E) 664 3.9 -14.7°
Drops below altitude 10° 12:37:12 10° 13° (NNE) 1,970 6.6 -13.9°
Sets 12:39:27 0° 11° (N) 2,883 7.4 -13.5°
